sat.trackr.live / text

‹ back to catalog

ISTSAT-1

NORAD 60238 · 2024-128D

PAYLOAD ACTIVE UNKNOWN

§ Identity

Operator
Country
POR
Launch date
2024-07-09
Launch site
FRGUI
Launch vehicle
Mass (kg)
RCS (m²)

External: N2YO · Heavens-Above · Gunter

§ Orbital elements

Epoch: 2026-05-25T03:54:56.039904Z

Period
95.28 min
Inclination
61.9883°
Eccentricity
0.0041513
Mean motion
15.11276337 rev/d
Perigee alt
503.6 km
Apogee alt
561.0 km
Semi-major
6,910.4 km
B*
4.3774e-4
RAAN
287.5234°
Arg perigee
126.6378°
Mean anomaly
233.8545°
Rev number
10,298

§ Raw data

ISTSAT-11 60238U 24128D   26145.16314861  .00007337  00000+0  43774-3 0  99912 60238  61.9883 287.5234 0041513 126.6378 233.8545 15.11276337102980

JSON: /api/v1/satellites/60238 · /tle

For live sub-satellite position, see the globe view (requires WebGL).

§ Visibility from observer

Set your observer location to see the next 7 days of passes ≥ 10°. The values pass through the URL so the page stays shareable.

No JS? Fill the form by hand. The geolocation button needs JavaScript.

§ Radio — SatNOGS DB

ModeDescriptionDownlinkUplink
CW CW Beacon 145.895 MHz
AFSK Mode V - AFSK1k2 145.895 MHz

2 transmitters · refreshed weekly from db.satnogs.org